Location: Alsip
(41.6689°N, 87.7387°W)
Time: 06:47:59
(UTC+00:00)

Cosmos 44 Rocket - Pass Details

Date: 14 July 2020
Orbit: 651 x 739 km, 65.1° (Epoch: 04 August)

Event Time Altitude Azimuth Distance (km) Brightness Sun altitude
Exits shadow 04:13:03 46° 94° (E) 886 3.6 -22.3°
Drops below altitude 10° 04:17:02 10° 43° (NE) 2,091 6.0 -22.6°
Sets 04:19:26 0° 38° (NE) 3,020 7.0 -22.8°
